User: anonymous   Login
Location: Unspecified
(0.0000°N, 0.0000°E)
Time: 12:08:33
(UTC+00:00)
Language:

NOAA 16 DEB - Orbit

View from above orbital plane
View from above orbital plane
View from above satellite
View from above satellite

Ground track
Ground track

The orbit data is extracted from the following two-line orbital elements,

1 42413U 00055TH  24169.63093301  .00006621  00000-0  25060-2 0  9991
2 42413  98.8991 298.0954 0028474 126.1611 234.2211 14.31301428430425
Epoch (UTC): 17 June 2024 15:08:32
Eccentricity: 0.0028474
inclination: 98.8991°
perigee height: 767 km
apogee height: 808 km
right ascension of ascending node: 298.0954°
argument of perigee: 126.1611°
revolutions per day: 14.31301428
mean anomaly at epoch: 234.2211°
orbit number at epoch: 43042

The dashed part of the orbit path shows where the satellite is in the earth's shadow,  

DLR